This is the latest recevied weather packets stored in our database for station/object KI4BIY. If no packets are shown the sender has not sent any weather packets the latest 10 day(s).
| Time | Temp. | Humidity | Pressure | Rain* | Wind** | Luminosity | Snow |
|---|---|---|---|---|---|---|---|
| 1777659535 | 18.89° C | 52% | 1016.8 hPa | 0 mm | - | 242 W/m² | - |
| 1777659232 | 18.89° C | 55% | 1016.6 hPa | 0 mm | - | 289 W/m² | - |
| 1777658929 | 18.89° C | 53% | 1016.5 hPa | 0 mm | - | 260 W/m² | - |
| 1777658625 | 19.44° C | 57% | 1016.2 hPa | 0 mm | - | 364 W/m² | - |
| 1777658322 | 19.44° C | 56% | 1016.5 hPa | 0 mm | - | 265 W/m² | - |
| 1777658019 | 20° C | 56% | 1016.6 hPa | 0 mm | - | 383 W/m² | - |
| 1777657716 | 19.44° C | 54% | 1016.5 hPa | 0 mm | - | 539 W/m² | - |
| 1777657413 | 19.44° C | 58% | 1016.3 hPa | 0 mm | - | 310 W/m² | - |
| 1777657111 | 19.44° C | 48% | 1016.5 hPa | 0 mm | - | 361 W/m² | - |
| 1777656809 | 19.44° C | 50% | 1016.5 hPa | 0 mm | - | 404 W/m² | - |
| 1777656504 | 20° C | 61% | 1016.6 hPa | 0 mm | - | 534 W/m² | - |
| 1777656199 | 19.44° C | 54% | 1016.3 hPa | 0 mm | - | 486 W/m² | - |
| 1777655895 | 19.44° C | 53% | 1016.3 hPa | 0 mm | - | 414 W/m² | - |
| 1777655600 | 19.44° C | 53% | 1016.3 hPa | 0 mm | - | 473 W/m² | - |
| 1777655288 | 19.44° C | 51% | 1016.4 hPa | 0 mm | - | 371 W/m² | - |
| 1777654986 | 20° C | 51% | 1016.4 hPa | 0 mm | - | 354 W/m² | - |
| 1777654683 | 19.44° C | 57% | 1016.5 hPa | 0 mm | - | 565 W/m² | - |
| 1777654380 | 20° C | 52% | 1016.5 hPa | 0 mm | - | 621 W/m² | - |
| 1777654078 | 18.89° C | 56% | 1016.6 hPa | 0 mm | - | 607 W/m² | - |
| 1777653775 | 18.33° C | 58% | 1016.8 hPa | 0 mm | - | 455 W/m² | - |
| 1777653471 | 17.78° C | 59% | 1016.8 hPa | 0 mm | - | 440 W/m² | - |
| 1777653169 | 17.78° C | 58% | 1016.6 hPa | 0 mm | - | 344 W/m² | - |
| 1777652864 | 17.78° C | 62% | 1017.1 hPa | 0 mm | - | 347 W/m² | - |
| 1777652561 | 17.22° C | 61% | 1016.9 hPa | 0 mm | - | 295 W/m² | - |
| 1777652258 | 17.22° C | 59% | 1016.9 hPa | 0 mm | - | 239 W/m² | - |
* Rain latest hour (hover to see other rain measurements)
** Current wind speed in m/s (hover to see current wind gust speed)